Time,TemperatureF,DewpointF,PressureIn,WindDirection,WindDirectionDegrees,WindSpeedMPH,WindSpeedGustMPH,Humidity,HourlyPrecipIn,Conditions,Clouds,dailyrainin,SoftwareType,DateUTC
2013-07-06 00:00:00,79.2,73.2,29.95,SSE,158,1.0,5.0,82,0.00,,,-99.99,Weather View 32 v60,2013-07-06 04:00:00,
2013-07-06 00:04:00,79.2,73.2,29.95,South,180,1.0,4.0,82,0.00,,,-99.99,Weather View 32 v60,2013-07-06 04:04:00,
2013-07-06 00:10:00,79.1,73.1,29.95,East,90,1.0,4.0,82,0.00,,,-99.99,Weather View 32 v60,2013-07-06 04:10:00,
2013-07-06 00:15:00,79.0,73.0,29.96,SSE,158,1.0,4.0,82,0.00,,,-99.99,Weather View 32 v60,2013-07-06 04:15:00,
2013-07-06 00:25:00,78.8,73.2,29.96,SSE,158,1.0,4.0,83,0.00,,,-99.99,Weather View 32 v60,2013-07-06 04:25:00,
2013-07-06 00:30:00,78.8,73.2,29.96,South,180,1.0,4.0,83,0.00,,,-99.99,Weather View 32 v60,2013-07-06 04:30:00,
2013-07-06 00:34:00,78.7,73.1,29.96,South,180,1.0,4.0,83,0.00,,,-99.99,Weather View 32 v60,2013-07-06 04:34:00,
2013-07-06 00:40:00,78.6,73.3,29.96,South,180,1.0,4.0,84,0.00,,,-99.99,Weather View 32 v60,2013-07-06 04:40:00,
2013-07-06 00:49:00,78.5,73.2,29.95,SSE,158,1.0,4.0,84,0.00,,,-99.99,Weather View 32 v60,2013-07-06 04:49:00,
2013-07-06 00:55:00,78.4,73.1,29.96,East,90,1.0,4.0,84,0.00,,,-99.99,Weather View 32 v60,2013-07-06 04:55:00,
2013-07-06 01:00:00,78.3,73.4,29.96,NE,45,2.0,4.0,85,0.00,,,-99.99,Weather View 32 v60,2013-07-06 05:00:00,
2013-07-06 01:10:00,78.2,73.3,29.96,SSE,158,1.0,4.0,85,0.00,,,-99.99,Weather View 32 v60,2013-07-06 05:10:00,
2013-07-06 01:15:00,78.2,73.3,29.96,South,180,1.0,4.0,85,0.00,,,-99.99,Weather View 32 v60,2013-07-06 05:15:00,
2013-07-06 01:25:00,78.1,73.2,29.96,NNE,23,1.0,4.0,85,0.00,,,-99.99,Weather View 32 v60,2013-07-06 05:25:00,
2013-07-06 01:30:00,78.0,73.1,29.96,South,180,1.0,4.0,85,0.00,,,-99.99,Weather View 32 v60,2013-07-06 05:30:00,
2013-07-06 01:40:00,77.8,73.3,29.96,ENE,68,0.0,4.0,86,0.00,,,-99.99,Weather View 32 v60,2013-07-06 05:40:00,
2013-07-06 01:50:00,77.6,73.1,29.95,South,180,0.0,4.0,86,0.00,,,-99.99,Weather View 32 v60,2013-07-06 05:50:00,
2013-07-06 02:00:00,77.5,73.0,29.95,South,180,1.0,4.0,86,0.00,,,-99.99,Weather View 32 v60,2013-07-06 06:00:00,
2013-07-06 02:10:00,77.3,72.8,29.95,South,180,2.0,4.0,86,0.00,,,-99.99,Weather View 32 v60,2013-07-06 06:10:00,
2013-07-06 02:15:00,77.3,73.1,29.95,East,90,1.0,4.0,87,0.00,,,-99.99,Weather View 32 v60,2013-07-06 06:15:00,
2013-07-06 02:25:00,77.1,72.9,29.95,South,180,0.0,4.0,87,0.00,,,-99.99,Weather View 32 v60,2013-07-06 06:25:00,
2013-07-06 02:35:00,77.0,72.8,29.95,South,180,1.0,4.0,87,0.00,,,-99.99,Weather View 32 v60,2013-07-06 06:35:00,
2013-07-06 02:40:00,77.0,72.8,29.95,South,180,1.0,4.0,87,0.00,,,-99.99,Weather View 32 v60,2013-07-06 06:40:00,
2013-07-06 02:50:00,76.9,72.7,29.95,South,180,1.0,4.0,87,0.00,,,-99.99,Weather View 32 v60,2013-07-06 06:50:00,
2013-07-06 02:55:00,76.8,72.6,29.95,South,180,2.0,4.0,87,0.00,,,-99.99,Weather View 32 v60,2013-07-06 06:55:00,
2013-07-06 03:00:00,76.8,73.0,29.95,South,180,1.0,4.0,88,0.00,,,-99.99,Weather View 32 v60,2013-07-06 07:00:00,
2013-07-06 03:10:00,76.7,72.9,29.95,SE,135,1.0,4.0,88,0.00,,,-99.99,Weather View 32 v60,2013-07-06 07:10:00,
2013-07-06 03:15:00,76.6,72.8,29.95,ESE,113,1.0,4.0,88,0.00,,,-99.99,Weather View 32 v60,2013-07-06 07:15:00,
2013-07-06 03:20:00,76.6,72.8,29.96,South,180,1.0,4.0,88,0.00,,,-99.99,Weather View 32 v60,2013-07-06 07:20:00,
2013-07-06 03:30:00,76.5,72.7,29.95,SSE,158,1.0,4.0,88,0.00,,,-99.99,Weather View 32 v60,2013-07-06 07:30:00,
2013-07-06 03:40:00,76.4,72.6,29.95,SSE,158,1.0,4.0,88,0.00,,,-99.99,Weather View 32 v60,2013-07-06 07:40:00,
2013-07-06 03:45:00,76.3,72.5,29.95,South,180,1.0,4.0,88,0.00,,,-99.99,Weather View 32 v60,2013-07-06 07:45:00,
2013-07-06 03:50:00,76.3,72.5,29.95,SSE,158,1.0,4.0,88,0.00,,,-99.99,Weather View 32 v60,2013-07-06 07:50:00,
2013-07-06 03:55:00,76.2,72.4,29.95,SSE,158,1.0,3.0,88,0.00,,,-99.99,Weather View 32 v60,2013-07-06 07:55:00,
2013-07-06 04:05:00,76.1,72.6,29.95,South,180,1.0,3.0,89,0.00,,,-99.99,Weather View 32 v60,2013-07-06 08:05:00,
2013-07-06 04:10:00,75.9,72.4,29.95,SSE,158,1.0,6.0,89,0.00,,,-99.99,Weather View 32 v60,2013-07-06 08:10:00,
2013-07-06 04:15:00,75.9,72.4,29.95,SSE,158,1.0,6.0,89,0.00,,,-99.99,Weather View 32 v60,2013-07-06 08:15:00,
2013-07-06 04:25:00,75.8,72.3,29.95,SSE,158,1.0,6.0,89,0.00,,,-99.99,Weather View 32 v60,2013-07-06 08:25:00,
2013-07-06 04:30:00,75.7,72.2,29.95,South,180,2.0,6.0,89,0.00,,,-99.99,Weather View 32 v60,2013-07-06 08:30:00,
2013-07-06 04:40:00,75.6,72.1,29.95,South,180,0.0,6.0,89,0.00,,,-99.99,Weather View 32 v60,2013-07-06 08:40:00,
2013-07-06 04:45:00,75.5,72.3,29.95,South,180,1.0,6.0,90,0.00,,,-99.99,Weather View 32 v60,2013-07-06 08:45:00,
2013-07-06 04:50:00,75.5,72.3,29.95,SSE,158,1.0,6.0,90,0.00,,,-99.99,Weather View 32 v60,2013-07-06 08:50:00,
2013-07-06 05:00:00,75.3,72.1,29.95,South,180,1.0,6.0,90,0.00,,,-99.99,Weather View 32 v60,2013-07-06 09:00:00,
2013-07-06 05:10:00,75.2,72.1,29.95,SSE,158,1.0,6.0,90,0.00,,,-99.99,Weather View 32 v60,2013-07-06 09:10:00,
2013-07-06 05:20:00,75.1,72.0,29.95,SSE,158,1.0,4.0,90,0.00,,,-99.99,Weather View 32 v60,2013-07-06 09:20:00,
2013-07-06 05:25:00,75.0,71.9,29.96,South,180,1.0,4.0,90,0.00,,,-99.99,Weather View 32 v60,2013-07-06 09:25:00,
2013-07-06 05:34:00,74.9,71.8,29.96,South,180,1.0,5.0,90,0.00,,,-99.99,Weather View 32 v60,2013-07-06 09:34:00,
2013-07-06 05:40:00,74.9,72.1,29.96,SSE,158,4.0,5.0,91,0.00,,,-99.99,Weather View 32 v60,2013-07-06 09:40:00,
2013-07-06 05:45:00,74.9,72.1,29.96,South,180,1.0,5.0,91,0.00,,,-99.99,Weather View 32 v60,2013-07-06 09:45:00,
2013-07-06 05:52:00,74.9,72.1,29.96,South,180,1.0,5.0,91,0.00,,,-99.99,Weather View 32 v60,2013-07-06 09:52:00,
2013-07-06 06:00:00,74.9,72.1,29.96,South,180,1.0,5.0,91,0.00,,,-99.99,Weather View 32 v60,2013-07-06 10:00:00,
2013-07-06 06:10:00,74.8,72.0,29.96,South,180,1.0,5.0,91,0.00,,,-99.99,Weather View 32 v60,2013-07-06 10:10:00,
2013-07-06 06:20:00,74.8,72.0,29.97,South,180,1.0,5.0,91,0.00,,,-99.99,Weather View 32 v60,2013-07-06 10:20:00,
2013-07-06 06:25:00,74.8,72.0,29.97,South,180,1.0,5.0,91,0.00,,,-99.99,Weather View 32 v60,2013-07-06 10:25:00,
2013-07-06 06:34:00,74.9,72.1,29.97,South,180,1.0,4.0,91,0.00,,,-99.99,Weather View 32 v60,2013-07-06 10:34:00,
2013-07-06 06:40:00,74.9,72.1,29.97,SSE,158,1.0,4.0,91,0.00,,,-99.99,Weather View 32 v60,2013-07-06 10:40:00,
2013-07-06 06:45:00,75.0,72.2,29.97,SE,135,1.0,4.0,91,0.00,,,-99.99,Weather View 32 v60,2013-07-06 10:45:00,
2013-07-06 06:52:00,75.1,72.6,29.97,SSE,158,0.0,4.0,92,0.00,,,-99.99,Weather View 32 v60,2013-07-06 10:52:00,
2013-07-06 07:00:00,75.3,72.8,29.97,SSE,158,0.0,4.0,92,0.00,,,-99.99,Weather View 32 v60,2013-07-06 11:00:00,
2013-07-06 07:10:00,75.5,73.0,29.97,SE,135,1.0,4.0,92,0.00,,,-99.99,Weather View 32 v60,2013-07-06 11:10:00,
2013-07-06 07:15:00,75.7,73.2,29.97,ESE,113,0.0,3.0,92,0.00,,,-99.99,Weather View 32 v60,2013-07-06 11:15:00,
2013-07-06 07:25:00,76.1,73.3,29.97,SSE,158,1.0,3.0,91,0.00,,,-99.99,Weather View 32 v60,2013-07-06 11:25:00,
2013-07-06 07:30:00,76.2,73.4,29.97,South,180,2.0,4.0,91,0.00,,,-99.99,Weather View 32 v60,2013-07-06 11:30:00,
2013-07-06 07:40:00,76.7,73.2,29.97,SSE,158,1.0,6.0,89,0.00,,,-99.99,Weather View 32 v60,2013-07-06 11:40:00,
2013-07-06 07:45:00,76.9,73.4,29.96,NE,45,2.0,6.0,89,0.00,,,-99.99,Weather View 32 v60,2013-07-06 11:45:00,
2013-07-06 07:53:00,77.1,73.6,29.97,SSE,158,3.0,6.0,89,0.00,,,-99.99,Weather View 32 v60,2013-07-06 11:53:00,
2013-07-06 08:00:00,77.5,73.3,29.97,NE,45,1.0,6.0,87,0.00,,,-99.99,Weather View 32 v60,2013-07-06 12:00:00,
2013-07-06 08:10:00,77.9,73.7,29.97,SSE,158,3.0,6.0,87,0.00,,,-99.99,Weather View 32 v60,2013-07-06 12:10:00,
2013-07-06 08:15:00,78.1,73.5,29.97,ESE,113,1.0,6.0,86,0.00,,,-99.99,Weather View 32 v60,2013-07-06 12:15:00,
2013-07-06 08:24:00,78.3,73.4,29.97,NNE,23,2.0,7.0,85,0.00,,,-99.99,Weather View 32 v60,2013-07-06 12:24:00,
2013-07-06 08:30:00,78.5,73.6,29.97,NNE,23,3.0,7.0,85,0.00,,,-99.99,Weather View 32 v60,2013-07-06 12:30:00,
2013-07-06 08:40:00,78.7,73.8,29.96,SSE,158,1.0,7.0,85,0.00,,,-99.99,Weather View 32 v60,2013-07-06 12:40:00,
2013-07-06 08:50:00,79.2,73.9,29.96,ESE,113,2.0,7.0,84,0.00,,,-99.99,Weather View 32 v60,2013-07-06 12:50:00,
2013-07-06 08:55:00,79.4,73.8,29.96,East,90,3.0,8.0,83,0.00,,,-99.99,Weather View 32 v60,2013-07-06 12:55:00,
2013-07-06 09:00:00,79.6,74.0,29.96,South,180,1.0,8.0,83,0.00,,,-99.99,Weather View 32 v60,2013-07-06 13:00:00,
2013-07-06 09:10:00,80.3,73.9,29.95,East,90,2.0,8.0,81,0.00,,,-99.99,Weather View 32 v60,2013-07-06 13:10:00,
2013-07-06 09:15:00,80.6,73.8,29.95,ESE,113,2.0,8.0,80,0.00,,,-99.99,Weather View 32 v60,2013-07-06 13:15:00,
2013-07-06 09:25:00,81.4,73.8,29.95,NE,45,3.0,8.0,78,0.00,,,-99.99,Weather View 32 v60,2013-07-06 13:25:00,
2013-07-06 09:34:00,82.3,74.3,29.95,ENE,68,2.0,8.0,77,0.00,,,-99.99,Weather View 32 v60,2013-07-06 13:34:00,
2013-07-06 09:40:00,82.6,74.2,29.94,East,90,3.0,8.0,76,0.00,,,-99.99,Weather View 32 v60,2013-07-06 13:40:00,
2013-07-06 09:45:00,83.0,74.2,29.94,SSE,158,1.0,8.0,75,0.00,,,-99.99,Weather View 32 v60,2013-07-06 13:45:00,
2013-07-06 09:54:00,83.3,74.5,29.94,NNE,23,3.0,8.0,75,0.00,,,-99.99,Weather View 32 v60,2013-07-06 13:54:00,
2013-07-06 10:00:00,84.0,74.8,29.94,SE,135,2.0,8.0,74,0.00,,,-99.99,Weather View 32 v60,2013-07-06 14:00:00,
2013-07-06 10:10:00,84.1,73.6,29.94,ENE,68,3.0,7.0,71,0.00,,,-99.99,Weather View 32 v60,2013-07-06 14:10:00,
2013-07-06 10:15:00,84.0,73.5,29.94,ENE,68,3.0,9.0,71,0.00,,,-99.99,Weather View 32 v60,2013-07-06 14:15:00,
2013-07-06 10:25:00,84.1,73.2,29.94,South,180,2.0,9.0,70,0.00,,,-99.99,Weather View 32 v60,2013-07-06 14:25:00,
2013-07-06 10:35:00,84.3,73.0,29.94,NNE,23,5.0,9.0,69,0.00,,,-99.99,Weather View 32 v60,2013-07-06 14:35:00,
2013-07-06 10:45:00,84.7,73.4,29.94,NE,45,5.0,9.0,69,0.00,,,-99.99,Weather View 32 v60,2013-07-06 14:45:00,
2013-07-06 10:55:00,85.3,73.9,29.94,NE,45,1.0,9.0,69,0.00,,,-99.99,Weather View 32 v60,2013-07-06 14:55:00,
2013-07-06 11:05:00,85.6,73.8,29.94,NNE,23,4.0,12.0,68,0.00,,,-99.99,Weather View 32 v60,2013-07-06 15:05:00,
2013-07-06 11:15:00,86.3,74.0,29.94,ENE,68,4.0,12.0,67,0.00,,,-99.99,Weather View 32 v60,2013-07-06 15:15:00,
2013-07-06 11:20:00,86.4,73.6,29.94,NE,45,2.0,12.0,66,0.00,,,-99.99,Weather View 32 v60,2013-07-06 15:20:00,
2013-07-06 11:30:00,86.8,74.0,29.93,ENE,68,2.0,12.0,66,0.00,,,-99.99,Weather View 32 v60,2013-07-06 15:30:00,
2013-07-06 11:40:00,87.5,74.7,29.93,East,90,3.0,12.0,66,0.00,,,-99.99,Weather View 32 v60,2013-07-06 15:40:00,
2013-07-06 11:49:00,88.3,75.0,29.93,ESE,113,1.0,12.0,65,0.00,,,-99.99,Weather View 32 v60,2013-07-06 15:49:00,
2013-07-06 11:55:00,88.5,74.7,29.93,East,90,5.0,12.0,64,0.00,,,-99.99,Weather View 32 v60,2013-07-06 15:55:00,
2013-07-06 12:00:00,88.3,74.5,29.93,SSE,158,1.0,12.0,64,0.00,,,-99.99,Weather View 32 v60,2013-07-06 16:00:00,
2013-07-06 12:10:00,88.8,75.0,29.93,SE,135,1.0,12.0,64,0.00,,,-99.99,Weather View 32 v60,2013-07-06 16:10:00,
2013-07-06 12:15:00,88.9,73.6,29.93,East,90,3.0,12.0,61,0.00,,,-99.99,Weather View 32 v60,2013-07-06 16:15:00,
2013-07-06 12:25:00,88.5,72.8,29.93,East,90,3.0,12.0,60,0.00,,,-99.99,Weather View 32 v60,2013-07-06 16:25:00,
2013-07-06 12:35:00,87.8,73.6,29.93,SSE,158,1.0,12.0,63,0.00,,,-99.99,Weather View 32 v60,2013-07-06 16:35:00,
2013-07-06 12:45:00,88.2,74.4,29.92,NE,45,1.0,9.0,64,0.00,,,-99.99,Weather View 32 v60,2013-07-06 16:45:00,
2013-07-06 12:55:00,88.7,74.9,29.92,SSE,158,3.0,9.0,64,0.00,,,-99.99,Weather View 32 v60,2013-07-06 16:55:00,
2013-07-06 13:15:00,89.0,74.2,29.92,SE,135,3.0,9.0,62,0.00,,,-99.99,Weather View 32 v60,2013-07-06 17:15:00,
2013-07-06 13:25:00,88.6,73.8,29.92,ESE,113,3.0,10.0,62,0.00,,,-99.99,Weather View 32 v60,2013-07-06 17:25:00,
2013-07-06 13:30:00,88.7,73.5,29.92,SSE,158,1.0,10.0,61,0.00,,,-99.99,Weather View 32 v60,2013-07-06 17:30:00,
2013-07-06 13:45:00,88.9,73.2,29.92,East,90,3.0,10.0,60,0.00,,,-99.99,Weather View 32 v60,2013-07-06 17:45:00,
2013-07-06 13:50:00,88.9,73.2,29.92,ENE,68,2.0,10.0,60,0.00,,,-99.99,Weather View 32 v60,2013-07-06 17:50:00,
2013-07-06 13:55:00,89.1,73.3,29.92,ESE,113,3.0,10.0,60,0.00,,,-99.99,Weather View 32 v60,2013-07-06 17:55:00,
2013-07-06 14:20:00,89.1,72.3,29.92,NE,45,3.0,10.0,58,0.00,,,-99.99,Weather View 32 v60,2013-07-06 18:20:00,
2013-07-06 14:25:00,89.2,72.4,29.91,NE,45,7.0,9.0,58,0.00,,,-99.99,Weather View 32 v60,2013-07-06 18:25:00,
2013-07-06 14:50:00,89.5,72.2,29.91,East,90,2.0,9.0,57,0.00,,,-99.99,Weather View 32 v60,2013-07-06 18:50:00,
2013-07-06 14:57:00,89.4,72.1,29.91,NE,45,4.0,9.0,57,0.00,,,-99.99,Weather View 32 v60,2013-07-06 18:57:00,
2013-07-06 15:20:00,89.4,71.6,29.90,NE,45,2.0,11.0,56,0.00,,,-99.99,Weather View 32 v60,2013-07-06 19:20:00,
2013-07-06 15:35:00,89.4,71.6,29.90,NNE,23,5.0,11.0,56,0.00,,,-99.99,Weather View 32 v60,2013-07-06 19:35:00,
2013-07-06 15:40:00,89.0,70.7,29.90,East,90,1.0,11.0,55,0.00,,,-99.99,Weather View 32 v60,2013-07-06 19:40:00,
2013-07-06 15:57:00,88.8,72.0,29.89,NE,45,4.0,11.0,58,0.00,,,-99.99,Weather View 32 v60,2013-07-06 19:57:00,
2013-07-06 16:20:00,88.3,70.5,29.89,ESE,113,4.0,10.0,56,0.00,,,-99.99,Weather View 32 v60,2013-07-06 20:20:00,
2013-07-06 16:25:00,88.1,70.4,29.88,South,180,4.0,10.0,56,0.00,,,-99.99,Weather View 32 v60,2013-07-06 20:25:00,
2013-07-06 16:34:00,87.8,70.6,29.88,South,180,3.0,10.0,57,0.00,,,-99.99,Weather View 32 v60,2013-07-06 20:34:00,
2013-07-06 16:40:00,87.7,70.5,29.88,East,90,0.0,8.0,57,0.00,,,-99.99,Weather View 32 v60,2013-07-06 20:40:00,
2013-07-06 16:45:00,87.6,69.9,29.88,East,90,1.0,7.0,56,0.00,,,-99.99,Weather View 32 v60,2013-07-06 20:45:00,
2013-07-06 17:10:00,86.5,68.9,29.87,NNE,23,3.0,11.0,56,0.00,,,-99.99,Weather View 32 v60,2013-07-06 21:10:00,
2013-07-06 17:20:00,86.3,68.7,29.87,NE,45,1.0,11.0,56,0.00,,,-99.99,Weather View 32 v60,2013-07-06 21:20:00,
2013-07-06 17:25:00,86.1,68.5,29.87,NNE,23,3.0,11.0,56,0.00,,,-99.99,Weather View 32 v60,2013-07-06 21:25:00,
2013-07-06 17:40:00,85.7,68.6,29.87,NE,45,3.0,11.0,57,0.00,,,-99.99,Weather View 32 v60,2013-07-06 21:40:00,
2013-07-06 17:45:00,85.6,68.6,29.87,NNE,23,5.0,11.0,57,0.00,,,-99.99,Weather View 32 v60,2013-07-06 21:45:00,
2013-07-06 18:00:00,85.2,68.2,29.86,ENE,68,4.0,9.0,57,0.00,,,-99.99,Weather View 32 v60,2013-07-06 22:00:00,
2013-07-06 18:10:00,84.9,67.9,29.87,NE,45,0.0,9.0,57,0.00,,,-99.99,Weather View 32 v60,2013-07-06 22:10:00,
2013-07-06 18:15:00,84.7,68.2,29.86,South,180,3.0,9.0,58,0.00,,,-99.99,Weather View 32 v60,2013-07-06 22:15:00,
2013-07-06 18:24:00,84.4,68.4,29.86,SE,135,0.0,9.0,59,0.00,,,-99.99,Weather View 32 v60,2013-07-06 22:24:00,
2013-07-06 18:30:00,84.2,68.3,29.86,SE,135,4.0,9.0,59,0.00,,,-99.99,Weather View 32 v60,2013-07-06 22:30:00,
2013-07-06 18:50:00,83.5,67.6,29.87,NNE,23,1.0,8.0,59,0.00,,,-99.99,Weather View 32 v60,2013-07-06 22:50:00,
2013-07-06 18:55:00,83.3,67.4,29.87,South,180,2.0,8.0,59,0.00,,,-99.99,Weather View 32 v60,2013-07-06 22:55:00,
2013-07-06 19:05:00,82.9,68.0,29.87,SE,135,1.0,8.0,61,0.00,,,-99.99,Weather View 32 v60,2013-07-06 23:05:00,
2013-07-06 19:15:00,82.5,67.6,29.87,South,180,0.0,8.0,61,0.00,,,-99.99,Weather View 32 v60,2013-07-06 23:15:00,
2013-07-06 19:25:00,82.2,67.4,29.87,South,180,0.0,8.0,61,0.00,,,-99.99,Weather View 32 v60,2013-07-06 23:25:00,
2013-07-06 19:35:00,81.8,67.9,29.87,South,180,0.0,6.0,63,0.00,,,-99.99,Weather View 32 v60,2013-07-06 23:35:00,
2013-07-06 19:45:00,81.5,67.6,29.87,ENE,68,0.0,6.0,63,0.00,,,-99.99,Weather View 32 v60,2013-07-06 23:45:00,
2013-07-06 19:55:00,81.1,67.7,29.87,NE,45,2.0,6.0,64,0.00,,,-99.99,Weather View 32 v60,2013-07-06 23:55:00,
2013-07-06 20:00:00,80.8,67.4,29.87,NE,45,2.0,6.0,64,0.00,,,-99.99,Weather View 32 v60,2013-07-07 00:00:00,
2013-07-06 20:15:00,80.2,66.9,29.87,SSE,158,3.0,5.0,64,0.00,,,-99.99,Weather View 32 v60,2013-07-07 00:15:00,
2013-07-06 20:25:00,79.8,66.9,29.88,South,180,1.0,5.0,65,0.00,,,-99.99,Weather View 32 v60,2013-07-07 00:25:00,
2013-07-06 20:30:00,79.5,67.5,29.88,South,180,1.0,5.0,67,0.00,,,-99.99,Weather View 32 v60,2013-07-07 00:30:00,
2013-07-06 20:40:00,79.0,67.5,29.88,South,180,0.0,4.0,68,0.00,,,-99.99,Weather View 32 v60,2013-07-07 00:40:00,
2013-07-06 20:45:00,78.8,67.3,29.88,South,180,1.0,4.0,68,0.00,,,-99.99,Weather View 32 v60,2013-07-07 00:45:00,
2013-07-06 21:00:00,78.2,67.2,29.88,SSE,158,0.0,4.0,69,0.00,,,-99.99,Weather View 32 v60,2013-07-07 01:00:00,
2013-07-06 21:15:00,77.6,67.0,29.89,SSE,158,1.0,3.0,70,0.00,,,-99.99,Weather View 32 v60,2013-07-07 01:15:00,
2013-07-06 21:25:00,77.3,67.1,29.90,SE,135,0.0,2.0,71,0.00,,,-99.99,Weather View 32 v60,2013-07-07 01:25:00,
2013-07-06 21:35:00,77.0,66.4,29.90,SE,135,0.0,3.0,70,0.00,,,-99.99,Weather View 32 v60,2013-07-07 01:35:00,
2013-07-06 21:45:00,76.8,67.1,29.90,NNE,23,0.0,3.0,72,0.00,,,-99.99,Weather View 32 v60,2013-07-07 01:45:00,
2013-07-06 22:05:00,75.8,66.1,29.90,NE,45,1.0,4.0,72,0.00,,,-99.99,Weather View 32 v60,2013-07-07 02:05:00,
2013-07-06 22:10:00,75.6,65.9,29.90,NE,45,0.0,4.0,72,0.00,,,-99.99,Weather View 32 v60,2013-07-07 02:10:00,
2013-07-06 22:49:00,74.5,64.8,29.91,NE,45,0.0,4.0,72,0.00,,,-99.99,Weather View 32 v60,2013-07-07 02:49:00,
2013-07-06 22:55:00,74.4,65.1,29.91,NE,45,0.0,3.0,73,0.00,,,-99.99,Weather View 32 v60,2013-07-07 02:55:00,
2013-07-06 23:10:00,73.8,65.3,29.91,NE,45,0.0,2.0,75,0.00,,,-99.99,Weather View 32 v60,2013-07-07 03:10:00,
2013-07-06 23:20:00,73.6,64.8,29.91,NE,45,0.0,3.0,74,0.00,,,-99.99,Weather View 32 v60,2013-07-07 03:20:00,
2013-07-06 23:30:00,73.4,65.0,29.91,NE,45,0.0,3.0,75,0.00,,,-99.99,Weather View 32 v60,2013-07-07 03:30:00,
2013-07-06 23:35:00,73.3,64.9,29.91,NE,45,0.0,3.0,75,0.00,,,-99.99,Weather View 32 v60,2013-07-07 03:35:00,
2013-07-06 23:45:00,73.0,64.2,29.91,NE,45,1.0,3.0,74,0.00,,,-99.99,Weather View 32 v60,2013-07-07 03:45:00,